Location: Casilda
(33.0440°S, 61.1680°W)
Time: 10:30:37
(UTC-03:00)

ISS - Pass Details

Date: 20 October 2020
Orbit: 417 x 420 km, 51.6° (Epoch: 22 October)

Event Time Altitude Azimuth Distance (km) Brightness Sun altitude
Rises 20:26:09 0° 265° (W) 2,381 1.6 -13.6°
Reaches altitude 10° 20:29:26 10° 231° (SW) 1,523 0.3 -14.3°
Maximum altitude 20:30:44 12° 208° (SSW) 1,423 -0.3 -14.5°
Drops below altitude 10° 20:32:04 10° 186° (S) 1,527 -0.5 -14.8°
Sets 20:35:23 0° 151° (SSE) 2,399 0.1 -15.4°
